{"data":{"norad_id":58931,"epoch":"2026-09-20T00:01:39.163872Z","epoch_age_seconds":198819,"freshness":"STALE","line1":"1 58931U 24027A   26263.00114773  .00002221  00000+0  76850-4 0  9999","line2":"2 58931  53.1579 123.8549 0000970  65.2550 294.8553 15.34397689146966","mean_motion":15.34397689,"eccentricity":9.7e-5,"inclination_deg":53.1579,"raan_deg":123.8549,"arg_perigee_deg":65.255,"mean_anomaly_deg":294.8553,"bstar":7.685e-5,"rev_number":14696,"period_min":93.847899428112,"perigee_km":462.04654682518,"apogee_km":463.37367116432,"semimajor_km":6840.8471089947,"source":"CELESTRAK","updated_at":"2026-09-21T09:00:33.995779Z"}}